Regional Weather Roundup
Issued by NWS

Home | Current Version | Previous Version | Text Only | Print | Product List | Glossary On
Versions: 1 2 3 4 5 6 7 8 9 10 11 12 13 14 15 16 17 18 19 20 21 22 23 24 25
785
ASUS45 KREV 221210
RWRNV
NEVADA REGIONAL WEATHER ROUNDUP
NATIONAL WEATHER SERVICE RENO NV
500 AM PDT FRI MAY 22 2015

NOTE: "FAIR" INDICATES FEW OR NO CLOUDS BELOW 12,000 FEET WITH NO
SIGNIFICANT WEATHER AND/OR OBSTRUCTIONS TO VISIBILITY.

NVZ001-003-004-221300-
WESTERN NEVADA

CITY           SKY/WX    TMP DP  RH WIND       PRES   REMARKS
RENO           CLOUDY    50  46  86 CALM      29.96R
6HR MIN TEMP:  50; 6HR MAX TEMP:  51; 6HR PCP:  0.01;

CARSON CITY    CLOUDY    48  43  81 W5        29.96S
MINDEN         CLOUDY    46  46 100 CALM      29.98
SLIDE MTN        N/A     32  32 100 N6          N/A
PYRAMID LAKE     N/A     50 N/A N/A SW3         N/A
FALLON         CLOUDY    50  44  80 SW6       29.92S
6HR MIN TEMP:  47; 6HR MAX TEMP:  53;

LOVELOCK       CLOUDY    48  46  93 E5        29.92S
6HR MIN TEMP:  48; 6HR MAX TEMP:  53;

HAWTHORNE      CLOUDY    50  46  87 CALM      29.95S
$$

NVZ002-CAZ072-073-221300-
NORTHERN AND CENTRAL SIERRA

CITY           SKY/WX    TMP DP  RH WIND       PRES   REMARKS
S. LAKE TAHOE  CLOUDY    43  39  86 S3        29.98S
6HR MIN TEMP:  42; 6HR MAX TEMP:  43; 6HR PCP:  0.02;

TRUCKEE        CLOUDY    41  41 100 CALM      29.99S
SQUAW VLY 8000   N/A     34  32  93 VRB5        N/A
BLUE CANYON    FOG       44  42  93 NW3       30.00S VSB 1/4
MAMMOTH LAKES  CLOUDY    39  36  87 W8        29.99S
BRIDGEPORT     CLOUDY    39  36  89 CALM      29.96S
$$

NVZ030-031-036-221300-
NORTHERN NEVADA

CITY           SKY/WX    TMP DP  RH WIND       PRES   REMARKS
ELKO           MOCLDY    47  43  86 SE3       29.93S
6HR MIN TEMP:  47; 6HR MAX TEMP:  51; 6HR PCP:  0.01;

WINNEMUCCA     CLOUDY    39  38  96 CALM        N/A
6HR MIN TEMP:  39; 6HR MAX TEMP:  48;

WENDOVER       CLOUDY    50  46  87 CALM      29.91S
$$

NVZ035-037-221300-
CENTRAL NEVADA

CITY           SKY/WX    TMP DP  RH WIND       PRES   REMARKS
ELY            CLOUDY    41  36  82 W6        29.96F
6HR MIN TEMP:  38; 6HR MAX TEMP:  42; 6HR PCP: TRACE;

EUREKA           N/A     39  36  89 SE5       29.95S
6HR MIN TEMP:  38; 6HR MAX TEMP:  46;

$$

NVZ013-014-221300-
SOUTH CENTRAL NEVADA

CITY           SKY/WX    TMP DP  RH WIND       PRES   REMARKS
TONOPAH        CLOUDY    47  41  80 W8        29.93S
6HR MIN TEMP:  47; 6HR MAX TEMP:  53; 6HR PCP:  0.04;

$$

NVZ017-020-022-221300-
SOUTHERN NEVADA

CITY           SKY/WX    TMP DP  RH WIND       PRES   REMARKS
LAS VEGAS      CLOUDY    62  40  44 S16       29.77S
6HR MIN TEMP:  62; 6HR MAX TEMP:  70;

N. LAS VEGAS   CLOUDY    63  37  38 CALM      29.81R
6HR MIN TEMP:  63; 6HR MAX TEMP:  69;

NELLIS AFB     CLOUDY    64  39  39 W5        29.80S
6HR MIN TEMP:  64; 6HR MAX TEMP:  68;

HENDERSON      CLOUDY    61  41  47 S10       29.83S
6HR MIN TEMP:  60; 6HR MAX TEMP:  66;

MERCURY        MOCLDY    56  35  45 NE3       29.83S
6HR MIN TEMP:  52; 6HR MAX TEMP:  59;

$$



USA.gov is the U.S. government's official web portal to all federal, state and local government web resources and services.